Regional Weather Roundup
Issued by NWS

Home | Current Version | Previous Version | Text Only | Print | Product List | Glossary On
Versions: 1 2 3 4 5 6 7 8 9 10 11 12 13 14 15 16 17 18 19 20 21 22 23 24 25 26 27 28 29 30 31 32 33 34 35 36 37 38 39 40 41 42 43 44 45 46 47 48 49 50
640
ASUS43 KDMX 130603
RWRIA

WEATHER ROUNDUP FOR IOWA
NATIONAL WEATHER SERVICE DES MOINES IA
1200 AM CST SAT FEB 13 2016

NOTE: "FAIR" INDICATES FEW OR NO CLOUDS BELOW 12,000 FEET WITH NO
SIGNIFICANT WEATHER AND/OR OBSTRUCTIONS TO VISIBILITY.

* - THESE STATIONS ARE NOT NWS STATIONS...THUS NOT UNDER NWS
QUALITY CONTROL.  THEY ALSO DO NOT REPORT WEATHER SUCH
AS PRECIPITATION OR FOG.

IAZ001>003-012>014-020>022-031>034-043>046-130700-
   NORTHWEST IOWA

CITY           SKY/WX    TMP DP  RH WIND       PRES   REMARKS
CARROLL *      CLOUDY     1  -4  78 N8        30.63S WCI -12
CHEROKEE *     CLOUDY     0  -6  78 N3        30.64R
DENISON *      CLOUDY     3  -4  72 CALM      30.62R
LE MARS *      CLOUDY     1  -4  78 CALM      30.65F
ORANGE CITY *  CLOUDY     0  -6  78 CALM      30.60S
SHELDON *      CLOUDY    -8 -11  84 CALM      30.60F
SIOUX CITY     CLOUDY     8  -6  52 NE8       30.64S WCI  -4
6HR MIN TEMP:   8; 6HR MAX TEMP:  13;

SPENCER        CLOUDY    -3 -10  72 CALM      30.61F
6HR MIN TEMP:  -4; 6HR MAX TEMP:   4;

STORM LAKE *   CLEAR     -2  -8  78 N8        30.60S WCI -17
$$

IAZ055>058-069>071-079>083-090>094-130700-
   SOUTHWEST IOWA

CITY           SKY/WX    TMP DP  RH WIND       PRES   REMARKS
ATLANTIC *     CLOUDY     7  -2  66 NE8       30.64R WCI  -6
AUDUBON *      CLOUDY     1  -4  78 N5        30.62R WCI  -8
CLARINDA *     CLOUDY    12   3  67 N10       30.66R WCI  -1
COUNCIL BLFS * CLOUDY    10   1  67 NE9       30.63R WCI  -2
CRESTON *      CLOUDY     5  -2  72 N10       30.61S WCI -10
HARLAN  *      CLOUDY     5  -2  72 N6        30.67R WCI  -6
LAMONI         PTCLDY     7  -1  70 N10       30.60S WCI  -8
6HR MIN TEMP:   7; 6HR MAX TEMP:  16;

RED OAK *      CLOUDY    10   1  67 N13       30.64S WCI  -5
SHENANDOAH *   CLOUDY    12   1  62 N10       30.64F WCI  -1
$$

IAZ047>049-059>061-072>074-084-130700-
   CENTRAL IOWA

CITY           SKY/WX    TMP DP  RH WIND       PRES   REMARKS
AMES           CLOUDY     4  -3  73 N16       30.63R WCI -15
6HR MIN TEMP:   3; 6HR MAX TEMP:  10;

ANKENY *       CLOUDY     5  -4  66 NW9       30.65R WCI  -9
BOONE *        CLOUDY     1  -6  71 NW12      30.61R WCI -15
CHARITON *     CLOUDY     5  -2  72 NW8       30.62S WCI  -8
DES MOINES     CLEAR      5  -3  69 N7        30.64R WCI  -7
6HR MIN TEMP:   5; 6HR MAX TEMP:  13;

GRINNELL*      PTCLDY     5   0  78 NW8       30.61R WCI  -8
KNOXVILLE *    CLOUDY     5  -2  72 NW7       30.62R WCI  -7
MARSHALLTOWN   CLOUDY     1  -4  79 W9        30.61R WCI -14
6HR MIN TEMP:   1; 6HR MAX TEMP:   9;

NEWTON *       CLEAR      5   0  78 NW10      30.62R WCI -10
PELLA *        CLOUDY     4  -1  79 NW8       30.64S WCI  -9
$$

IAZ004>006-015-016-023>025-035-036-130700-
   NORTH CENTRAL IOWA

CITY           SKY/WX    TMP DP  RH WIND       PRES   REMARKS
ALGONA *       CLOUDY     0  -6  78 NW7       30.60S WCI -13
CLARION *      CLOUDY     0  -8  71 NW13      30.61S WCI -18
ESTHERVILLE    CLOUDY    -3  -8  79 NW14      30.59F WCI -22
6HR MIN TEMP:  -3; 6HR MAX TEMP:   3;

FORT DODGE *   CLOUDY     0  -8  71 N6        30.62S WCI -12
MASON CITY     CLOUDY    -4  -9  79 W9        30.61R WCI -20
6HR MIN TEMP:  -4; 6HR MAX TEMP:   6;

FOREST CITY *    N/A      0  -6  78 NW6       30.60R WCI -12
WEBSTER CITY * CLEAR      0  -8  71 NW13      30.61R WCI -18
IOWA FALLS *     N/A     -1  -6  80 NW12      30.61R WCI -18
$$

IAZ007>011-017>019-026>030-037>042-050>054-066-130700-
   NORTHEAST IOWA

CITY           SKY/WX    TMP DP  RH WIND       PRES   REMARKS
CEDAR RAPIDS   CLEAR      5  -4  66 NW12      30.57S WCI -11
6HR MIN TEMP:   5; 6HR MAX TEMP:  12;

CHARLES CITY * CLOUDY     1 -11  55 NW12      30.58R WCI -15
CLINTON *      CLEAR      6  -3  66 N12       30.56R WCI  -9
DECORAH *      CLOUDY     0 -13  55 NW7       30.54R WCI -13
DUBUQUE        CLEAR      4  -8  57 N13       30.52R WCI -13
6HR MIN TEMP:   4; 6HR MAX TEMP:  10;

MONTICELLO *   CLEAR      5  -8  56 NW9       30.57R WCI  -9
OELWEIN *      CLOUDY    -2 -11  65 NW10      30.57R WCI -19
WATERLOO       CLOUDY     1  -8  66 W7        30.61R WCI -12
6HR MIN TEMP:   1; 6HR MAX TEMP:   9;

$$

IAZ064-065-067-068-078-130700-
   EAST CENTRAL IOWA

CITY           SKY/WX    TMP DP  RH WIND       PRES   REMARKS
DAVENPORT      CLEAR      7  -4  60 N12       30.56R WCI  -8
6HR MIN TEMP:   7; 6HR MAX TEMP:  13;

IOWA CITY      CLEAR      8  -5  55 NW8       30.62R WCI  -4
6HR MIN TEMP:   8; 6HR MAX TEMP:  15;

MT. PLEASANT * CLEAR     11   0  62 NW8       30.60R WCI  -1
MUSCATINE *    CLEAR      9  -4  56 NW9G15    30.61R WCI  -5
QUAD CITIES    CLEAR      9  -4  55 NW12      30.57R WCI  -6
6HR MIN TEMP:   8; 6HR MAX TEMP:  16;

$$

IAZ062-063-075>077-085>089-095>099-130700-
   SOUTHEAST IOWA

CITY           SKY/WX    TMP DP  RH WIND       PRES   REMARKS
BURLINGTON     CLOUDY     9   0  67 NW10      30.58R WCI  -5
6HR MIN TEMP:   9; 6HR MAX TEMP:  17;

FAIRFIELD *    CLOUDY     7  -2  66 NW12      30.61R WCI  -9
FORT MADISON * CLOUDY     9   0  66 NW12      30.59R WCI  -6
KEOKUK *       CLEAR     10   1  67 N7        30.59R WCI   0
OSKALOOSA *      N/A      7   1  78 NW9       30.62R WCI  -7
OTTUMWA        CLOUDY     6   0  76 NW12      30.62R WCI  -9
6HR MIN TEMP:   6; 6HR MAX TEMP:  13;

WASHINGTON *   CLOUDY     7  -2  66 NW13      30.62R WCI  -9
$$

ABBREVIATIONS USED IN REMARKS
   TC - TEMPERATURES IN CELSIUS
  WCI - WIND CHILL INDEX
   HX - HEAT INDEX
  VSB - VISIBILITY
$$





USA.gov is the U.S. government's official web portal to all federal, state and local government web resources and services.